QPF
0.00 0.00 0.00 0.00 0.00 0.00 0.00 0.00 0.00 0.00 0.00 0.00 0.00 0.00 0.00 0.00 0.00 0.00 0.00 0.00 0.00 0.00 0.00 0.00 0.00 0.00 0.01 0.01 0.01 0.01 0.01 0.01 0.02 0.02 0.02 0.03 0.02 0.02
0.00 0.00 0.00 0.00 0.00 0.00 0.00 0.00 0.00 0.00 0.00 0.00 0.00 0.00 0.00 0.00 0.00 0.00 0.00 0.00 0.00 0.00 0.00 0.00 0.00 0.01 0.01 0.01 0.01 0.01 0.01 0.01 0.01 0.02 0.02 0.02 0.02 0.02
0.00 0.00 0.00 0.00 0.00 0.00 0.00 0.00 0.00 0.00 0.00 0.00 0.00 0.00 0.00 0.00 0.00 0.00 0.00 0.00 0.00 0.00 0.00 0.00 0.00 0.01 0.01 0.02 0.02 0.02 0.02 0.03 0.03 0.03 0.03 0.03 0.02 0.02
0.00 0.00 0.00 0.00 0.00 0.00 0.00 0.00 0.00 0.00 0.00 0.00 0.00 0.00 0.00 0.00 0.00 0.00 0.00 0.00 0.00 0.00 0.00 0.00 0.00 0.01 0.01 0.02 0.02 0.02 0.02 0.02 0.02 0.02 0.03 0.03 0.03 0.03
0.00 0.00 0.00 0.00 0.00 0.00 0.00 0.00 0.00 0.00 0.00 0.00 0.00 0.00 0.00 0.00 0.00 0.00 0.00 0.00 0.00 0.00 0.00 0.00 0.00 0.01 0.01 0.02 0.02 0.01 0.01 0.01 0.01 0.01 0.02 0.02 0.03 0.03
0.00 0.00 0.00 0.00 0.00 0.00 0.00 0.00 0.00 0.01 0.01 0.01 0.01 0.01 0.00 0.00 0.00 0.00 0.01 0.00 0.00 0.00 0.00 0.00 0.00 0.01 0.01 0.01 0.01 0.01 0.01 0.01 0.01 0.01 0.01 0.01 0.01 0.01
0.00 0.00 0.00 0.00 0.00 0.01 0.01 0.01 0.01 0.01 0.02 0.02 0.02 0.02 0.01 0.01 0.01 0.01 0.02 0.01 0.01 0.00 0.00 0.00 0.00 0.00 0.00 0.01 0.01 0.01 0.01 0.01 0.01 0.01 0.00 0.00 0.00 0.00
0.00 0.00 0.00 0.00 0.00 0.00 0.01 0.01 0.02 0.02 0.02 0.03 0.03 0.03 0.02 0.01 0.02 0.02 0.02 0.03 0.02 0.01 0.01 0.01 0.00 0.00 0.00 0.00 0.01 0.01 0.01 0.01 0.01 0.01 0.01 0.00 0.00 0.00
0.00 0.00 0.00 0.00 0.00 0.00 0.00 0.00 0.00 0.01 0.01 0.02 0.03 0.03 0.03 0.03 0.04 0.05 0.05 0.04 0.03 0.02 0.03 0.03 0.01 0.01 0.01 0.01 0.02 0.02 0.02 0.02 0.02 0.01 0.01 0.01 0.00 0.00
0.00 0.00 0.00 0.00 0.00 0.00 0.00 0.00 0.00 0.00 0.00 0.01 0.02 0.02 0.03 0.03 0.04 0.05 0.05 0.04 0.02 0.01 0.03 0.05 0.02 0.01 0.02 0.02 0.02 0.02 0.02 0.02 0.03 0.02 0.02 0.02 0.01 0.01
0.00 0.00 0.00 0.00 0.00 0.01 0.01 0.01 0.00 0.00 0.00 0.01 0.02 0.02 0.03 0.04 0.05 0.04 0.05 0.05 0.03 0.01 0.02 0.05 0.04 0.02 0.01 0.01 0.02 0.03 0.03 0.03 0.03 0.03 0.03 0.02 0.02 0.02
0.00 0.00 0.00 0.00 0.00 0.00 0.01 0.01 0.01 0.01 0.01 0.01 0.02 0.03 0.03 0.03 0.04 0.03 0.04 0.06 0.05 0.05 0.03 0.04 0.03 0.03 0.03 0.01 0.01 0.02 0.02 0.03 0.03 0.03 0.03 0.03 0.03 0.03
0.00 0.00 0.00 0.00 0.00 0.00 0.01 0.01 0.01 0.01 0.01 0.02 0.02 0.02 0.02 0.02 0.02 0.02 0.03 0.05 0.07 0.07 0.05 0.05 0.05 0.04 0.04 0.03 0.01 0.02 0.03 0.03 0.03 0.03 0.04 0.03 0.03 0.03
0.00 0.00 0.00 0.00 0.00 0.01 0.01 0.01 0.01 0.02 0.02 0.02 0.03 0.03 0.03 0.03 0.03 0.03 0.03 0.04 0.05 0.06 0.06 0.06 0.07 0.06 0.06 0.04 0.02 0.02 0.02 0.03 0.04 0.04 0.04 0.05 0.04 0.05
0.00 0.01 0.01 0.00 0.00 0.01 0.01 0.01 0.02 0.02 0.03 0.03 0.03 0.03 0.03 0.03 0.02 0.02 0.02 0.03 0.04 0.05 0.05 0.05 0.07 0.07 0.07 0.05 0.04 0.03 0.03 0.04 0.06 0.06 0.05 0.05 0.04 0.05
0.00 0.01 0.01 0.01 0.01 0.01 0.01 0.02 0.02 0.03 0.04 0.03 0.03 0.03 0.02 0.02 0.02 0.02 0.02 0.02 0.03 0.04 0.05 0.05 0.06 0.06 0.07 0.07 0.06 0.05 0.06 0.08 0.09 0.08 0.07 0.07 0.07 0.07
0.01 0.01 0.01 0.01 0.01 0.02 0.02 0.02 0.02 0.03 0.03 0.02 0.02 0.02 0.02 0.02 0.02 0.02 0.02 0.02 0.02 0.04 0.05 0.05 0.05 0.05 0.06 0.07 0.08 0.08 0.09 0.11 0.11 0.09 0.08 0.09 0.10 0.09
0.01 0.01 0.02 0.02 0.02 0.03 0.04 0.03 0.03 0.03 0.03 0.03 0.02 0.02 0.01 0.01 0.02 0.02 0.02 0.02 0.03 0.04 0.04 0.04 0.03 0.03 0.03 0.06 0.10 0.12 0.12 0.14 0.14 0.12 0.09 0.10 0.13 0.13
0.01 0.01 0.02 0.02 0.03 0.04 0.04 0.04 0.03 0.03 0.02 0.02 0.02 0.02 0.01 0.01 0.01 0.02 0.02 0.02 0.02 0.03 0.03 0.02 0.01 0.01 0.03 0.07 0.11 0.15 0.15 0.14 0.14 0.13 0.11 0.09 0.12 0.15
0.01 0.02 0.03 0.03 0.03 0.04 0.04 0.03 0.02 0.02 0.01 0.01 0.01 0.01 0.01 0.01 0.01 0.02 0.02 0.02 0.01 0.01 0.01 0.01 0.02 0.01 0.02 0.06 0.12 0.17 0.17 0.12 0.10 0.10 0.10 0.09 0.12 0.14
0.02 0.02 0.03 0.03 0.04 0.04 0.02 0.02 0.01 0.01 0.01 0.01 0.01 0.01 0.01 0.01 0.01 0.01 0.01 0.02 0.01 0.01 0.02 0.02 0.02 0.02 0.01 0.02 0.07 0.12 0.15 0.14 0.10 0.08 0.08 0.09 0.10 0.07
0.03 0.03 0.03 0.03 0.03 0.03 0.02 0.01 0.00 0.00 0.00 0.01 0.01 0.00 0.00 0.00 0.01 0.01 0.01 0.01 0.01 0.02 0.02 0.02 0.01 0.01 0.00 0.01 0.04 0.08 0.10 0.09 0.09 0.09 0.09 0.06 0.04 0.04
0.03 0.03 0.03 0.02 0.02 0.01 0.01 0.01 0.00 0.00 0.00 0.00 0.00 0.00 0.00 0.00 0.00 0.00 0.00 0.00 0.01 0.01 0.01 0.01 0.01 0.00 0.00 0.01 0.02 0.04 0.04 0.04 0.03 0.05 0.07 0.07 0.04 0.04
MSLP
1021.91 1022.04 1022.11 1022.11 1022.01 1021.80 1021.49 1021.10 1020.64 1020.16 1019.66 1019.19 1018.75 1018.35 1018.00 1017.69 1017.42 1017.17 1016.94 1016.72 1016.51 1016.30 1016.08 1015.85 1015.60 1015.34 1015.07 1014.79 1014.52 1014.29 1014.10 1013.97 1013.90 1013.91 1013.97 1014.07 1014.19 1014.31
1022.00 1022.06 1022.07 1022.01 1021.86 1021.60 1021.25 1020.83 1020.34 1019.83 1019.30 1018.79 1018.30 1017.86 1017.45 1017.08 1016.74 1016.43 1016.14 1015.88 1015.64 1015.42 1015.21 1015.00 1014.80 1014.58 1014.36 1014.13 1013.90 1013.70 1013.52 1013.39 1013.32 1013.30 1013.34 1013.42 1013.53 1013.66
1022.01 1022.01 1021.96 1021.85 1021.65 1021.36 1020.99 1020.54 1020.05 1019.52 1018.98 1018.45 1017.94 1017.45 1016.99 1016.55 1016.15 1015.77 1015.41 1015.09 1014.80 1014.54 1014.31 1014.10 1013.91 1013.72 1013.53 1013.34 1013.15 1012.97 1012.82 1012.70 1012.62 1012.60 1012.63 1012.71 1012.83 1012.98
1021.96 1021.90 1021.79 1021.62 1021.39 1021.07 1020.69 1020.24 1019.74 1019.22 1018.68 1018.14 1017.61 1017.10 1016.59 1016.11 1015.63 1015.18 1014.76 1014.36 1014.00 1013.68 1013.41 1013.17 1012.95 1012.76 1012.58 1012.40 1012.23 1012.08 1011.94 1011.84 1011.78 1011.77 1011.81 1011.91 1012.06 1012.25
1021.85 1021.73 1021.57 1021.36 1021.08 1020.75 1020.35 1019.90 1019.41 1018.90 1018.37 1017.83 1017.29 1016.75 1016.21 1015.68 1015.16 1014.64 1014.14 1013.67 1013.24 1012.85 1012.51 1012.21 1011.96 1011.73 1011.53 1011.35 1011.19 1011.04 1010.92 1010.84 1010.80 1010.81 1010.89 1011.02 1011.22 1011.47
1021.70 1021.52 1021.30 1021.05 1020.74 1020.38 1019.97 1019.52 1019.03 1018.51 1017.98 1017.44 1016.90 1016.35 1015.80 1015.24 1014.67 1014.11 1013.56 1013.02 1012.52 1012.06 1011.65 1011.28 1010.97 1010.69 1010.45 1010.24 1010.06 1009.92 1009.81 1009.74 1009.73 1009.78 1009.90 1010.08 1010.33 1010.64
1021.52 1021.28 1021.01 1020.71 1020.36 1019.97 1019.54 1019.07 1018.56 1018.04 1017.51 1016.97 1016.42 1015.87 1015.30 1014.73 1014.15 1013.56 1012.98 1012.41 1011.85 1011.33 1010.85 1010.42 1010.03 1009.70 1009.40 1009.16 1008.95 1008.80 1008.69 1008.65 1008.67 1008.75 1008.92 1009.16 1009.46 1009.83
1021.32 1021.02 1020.69 1020.34 1019.95 1019.52 1019.05 1018.56 1018.03 1017.49 1016.95 1016.40 1015.85 1015.30 1014.74 1014.18 1013.60 1013.02 1012.43 1011.84 1011.26 1010.70 1010.17 1009.68 1009.23 1008.83 1008.48 1008.19 1007.95 1007.78 1007.68 1007.65 1007.69 1007.82 1008.02 1008.31 1008.66 1009.07
1021.10 1020.74 1020.36 1019.96 1019.52 1019.05 1018.55 1018.02 1017.46 1016.90 1016.34 1015.78 1015.23 1014.69 1014.15 1013.62 1013.07 1012.51 1011.94 1011.36 1010.78 1010.21 1009.65 1009.11 1008.61 1008.15 1007.75 1007.41 1007.14 1006.95 1006.84 1006.82 1006.88 1007.04 1007.28 1007.60 1007.99 1008.42
1020.86 1020.46 1020.03 1019.58 1019.11 1018.60 1018.05 1017.49 1016.91 1016.32 1015.74 1015.18 1014.64 1014.11 1013.61 1013.10 1012.60 1012.09 1011.56 1011.01 1010.45 1009.87 1009.30 1008.73 1008.19 1007.68 1007.23 1006.85 1006.55 1006.33 1006.21 1006.20 1006.28 1006.46 1006.72 1007.06 1007.46 1007.90
1020.64 1020.19 1019.73 1019.24 1018.73 1018.19 1017.62 1017.02 1016.42 1015.82 1015.23 1014.67 1014.13 1013.63 1013.16 1012.70 1012.25 1011.79 1011.31 1010.80 1010.26 1009.70 1009.11 1008.53 1007.95 1007.41 1006.91 1006.49 1006.15 1005.92 1005.79 1005.77 1005.85 1006.04 1006.32 1006.67 1007.08 1007.51
1020.44 1019.97 1019.48 1018.97 1018.43 1017.87 1017.27 1016.66 1016.04 1015.43 1014.84 1014.29 1013.77 1013.30 1012.86 1012.44 1012.04 1011.62 1011.18 1010.71 1010.20 1009.64 1009.06 1008.45 1007.85 1007.27 1006.73 1006.27 1005.90 1005.64 1005.50 1005.47 1005.56 1005.76 1006.04 1006.40 1006.80 1007.21
1020.29 1019.80 1019.30 1018.77 1018.22 1017.64 1017.04 1016.42 1015.80 1015.19 1014.60 1014.06 1013.56 1013.11 1012.70 1012.31 1011.94 1011.56 1011.16 1010.71 1010.21 1009.66 1009.07 1008.44 1007.81 1007.20 1006.63 1006.13 1005.73 1005.45 1005.29 1005.26 1005.35 1005.55 1005.84 1006.19 1006.58 1006.99
1020.20 1019.70 1019.19 1018.66 1018.10 1017.52 1016.92 1016.30 1015.68 1015.07 1014.50 1013.96 1013.48 1013.04 1012.65 1012.29 1011.94 1011.58 1011.19 1010.75 1010.26 1009.71 1009.10 1008.46 1007.80 1007.16 1006.56 1006.03 1005.61 1005.31 1005.13 1005.10 1005.19 1005.39 1005.68 1006.03 1006.42 1006.82
1020.18 1019.68 1019.16 1018.63 1018.07 1017.49 1016.88 1016.27 1015.66 1015.06 1014.49 1013.97 1013.49 1013.07 1012.69 1012.33 1011.99 1011.64 1011.25 1010.82 1010.32 1009.76 1009.14 1008.48 1007.81 1007.15 1006.52 1005.98 1005.54 1005.22 1005.04 1005.00 1005.08 1005.28 1005.57 1005.93 1006.32 1006.71
1020.21 1019.71 1019.19 1018.66 1018.10 1017.52 1016.92 1016.31 1015.70 1015.12 1014.56 1014.04 1013.57 1013.15 1012.77 1012.42 1012.08 1011.72 1011.34 1010.90 1010.40 1009.85 1009.23 1008.57 1007.89 1007.22 1006.59 1006.04 1005.59 1005.27 1005.08 1005.03 1005.11 1005.30 1005.59 1005.94 1006.33 1006.72
1020.29 1019.79 1019.28 1018.74 1018.18 1017.60 1017.01 1016.41 1015.81 1015.23 1014.68 1014.17 1013.70 1013.28 1012.90 1012.55 1012.21 1011.86 1011.48 1011.05 1010.57 1010.03 1009.43 1008.79 1008.13 1007.48 1006.86 1006.32 1005.87 1005.54 1005.35 1005.29 1005.35 1005.53 1005.81 1006.15 1006.52 1006.90
1020.40 1019.91 1019.40 1018.86 1018.31 1017.74 1017.15 1016.56 1015.97 1015.40 1014.86 1014.36 1013.90 1013.48 1013.11 1012.76 1012.42 1012.09 1011.73 1011.33 1010.88 1010.38 1009.83 1009.24 1008.62 1008.01 1007.43 1006.91 1006.48 1006.15 1005.95 1005.87 1005.92 1006.07 1006.31 1006.62 1006.97 1007.33
1020.53 1020.05 1019.55 1019.03 1018.49 1017.93 1017.36 1016.78 1016.21 1015.65 1015.12 1014.63 1014.18 1013.78 1013.41 1013.08 1012.76 1012.45 1012.13 1011.78 1011.40 1010.96 1010.48 1009.96 1009.42 1008.87 1008.35 1007.87 1007.46 1007.14 1006.92 1006.82 1006.83 1006.94 1007.14 1007.40 1007.70 1008.02
1020.68 1020.22 1019.74 1019.24 1018.72 1018.18 1017.63 1017.08 1016.53 1015.99 1015.48 1015.00 1014.57 1014.18 1013.83 1013.52 1013.24 1012.97 1012.71 1012.43 1012.12 1011.77 1011.38 1010.96 1010.51 1010.04 1009.58 1009.14 1008.76 1008.45 1008.23 1008.10 1008.07 1008.12 1008.26 1008.46 1008.70 1008.96
1020.86 1020.43 1019.98 1019.50 1019.01 1018.50 1017.98 1017.45 1016.93 1016.41 1015.92 1015.47 1015.05 1014.68 1014.35 1014.08 1013.83 1013.62 1013.42 1013.21 1012.99 1012.74 1012.45 1012.13 1011.78 1011.40 1011.01 1010.63 1010.29 1009.99 1009.76 1009.60 1009.52 1009.52 1009.59 1009.72 1009.89 1010.08
1021.07 1020.67 1020.25 1019.81 1019.35 1018.87 1018.38 1017.88 1017.38 1016.89 1016.42 1015.97 1015.58 1015.23 1014.93 1014.68 1014.48 1014.31 1014.17 1014.04 1013.90 1013.75 1013.56 1013.34 1013.08 1012.79 1012.48 1012.16 1011.85 1011.57 1011.33 1011.15 1011.03 1010.98 1010.99 1011.06 1011.16 1011.30
1021.32 1020.95 1020.56 1020.14 1019.71 1019.26 1018.79 1018.31 1017.82 1017.35 1016.90 1016.47 1016.08 1015.75 1015.47 1015.24 1015.07 1014.95 1014.86 1014.79 1014.73 1014.65 1014.55 1014.42 1014.24 1014.03 1013.79 1013.52 1013.26 1013.00 1012.77 1012.58 1012.44 1012.35 1012.32 1012.34 1012.40 1012.49
Thickness
5534 5528 5523 5517 5511 5506 5501 5496 5494 5502 5506 5498 5488 5482 5476 5473 5471 5469 5467 5464 5462 5460 5459 5458 5456 5456 5455 5456 5457 5460 5464 5468 5474 5480 5486 5493 5499 5506
5518 5512 5506 5501 5496 5490 5485 5480 5475 5475 5482 5481 5473 5467 5463 5460 5458 5456 5453 5451 5449 5446 5444 5443 5442 5440 5440 5440 5441 5444 5447 5451 5457 5463 5470 5477 5484 5491
5501 5496 5491 5486 5481 5475 5471 5466 5461 5458 5463 5467 5459 5454 5450 5447 5445 5443 5441 5439 5437 5435 5434 5432 5431 5430 5429 5429 5430 5432 5434 5438 5443 5449 5455 5462 5469 5477
5486 5481 5477 5472 5467 5462 5457 5453 5449 5446 5445 5451 5449 5444 5439 5436 5435 5433 5432 5431 5429 5428 5427 5426 5425 5424 5423 5423 5423 5424 5426 5429 5433 5438 5443 5450 5458 5464
5471 5467 5463 5459 5455 5450 5446 5443 5440 5437 5434 5434 5437 5433 5431 5428 5427 5427 5426 5424 5423 5423 5423 5422 5421 5421 5420 5419 5419 5420 5421 5423 5426 5430 5434 5439 5446 5453
5458 5454 5451 5447 5444 5440 5438 5434 5431 5428 5425 5424 5425 5425 5423 5423 5421 5421 5422 5421 5420 5420 5420 5420 5419 5419 5418 5418 5418 5418 5419 5420 5422 5425 5429 5433 5438 5443
5446 5443 5439 5437 5436 5432 5429 5426 5423 5420 5418 5417 5418 5419 5419 5419 5418 5418 5418 5419 5418 5418 5418 5418 5417 5417 5417 5417 5416 5417 5417 5418 5420 5422 5425 5428 5431 5436
5435 5432 5429 5428 5425 5422 5419 5416 5414 5412 5412 5413 5414 5414 5416 5415 5415 5414 5414 5415 5417 5416 5414 5416 5415 5416 5416 5416 5417 5416 5416 5416 5417 5419 5422 5424 5426 5430
5424 5422 5420 5419 5416 5413 5411 5410 5408 5408 5408 5408 5410 5412 5413 5413 5412 5413 5412 5411 5411 5412 5411 5414 5414 5415 5416 5417 5417 5417 5416 5416 5416 5417 5419 5420 5422 5426
5415 5414 5412 5410 5409 5407 5406 5407 5407 5408 5408 5408 5408 5409 5410 5409 5408 5408 5408 5408 5408 5409 5408 5410 5413 5413 5415 5416 5417 5417 5416 5416 5415 5416 5417 5418 5420 5423
5407 5407 5405 5404 5403 5402 5403 5405 5407 5409 5409 5409 5409 5409 5409 5408 5407 5406 5406 5406 5407 5408 5406 5405 5408 5410 5413 5416 5416 5416 5416 5416 5415 5416 5416 5417 5418 5420
5400 5401 5400 5399 5399 5400 5401 5404 5406 5408 5409 5410 5410 5410 5409 5408 5407 5404 5403 5403 5403 5404 5403 5401 5403 5405 5410 5413 5414 5415 5415 5416 5416 5416 5416 5417 5417 5419
5394 5395 5396 5396 5398 5400 5402 5404 5405 5406 5408 5409 5409 5409 5409 5408 5406 5404 5402 5400 5400 5400 5399 5397 5399 5401 5403 5407 5412 5414 5414 5415 5416 5417 5416 5417 5417 5419
5389 5391 5393 5395 5398 5401 5403 5405 5406 5408 5409 5409 5409 5409 5408 5407 5406 5404 5403 5401 5399 5398 5397 5396 5397 5398 5401 5405 5409 5413 5415 5415 5416 5417 5417 5417 5417 5419
5387 5390 5393 5396 5399 5402 5404 5406 5408 5409 5409 5409 5408 5408 5407 5406 5405 5405 5404 5403 5402 5399 5398 5397 5396 5398 5400 5404 5407 5411 5414 5416 5417 5418 5418 5418 5419 5420
5387 5390 5394 5397 5400 5402 5405 5407 5408 5408 5408 5408 5407 5406 5406 5406 5405 5404 5403 5402 5401 5400 5399 5398 5398 5398 5401 5404 5407 5411 5414 5416 5418 5419 5419 5419 5420 5421
5385 5390 5394 5397 5400 5403 5406 5408 5409 5409 5409 5408 5407 5406 5406 5405 5404 5403 5402 5401 5400 5398 5398 5399 5400 5401 5401 5403 5408 5412 5415 5417 5419 5420 5421 5421 5421 5422
5386 5389 5392 5395 5399 5402 5405 5407 5408 5409 5409 5408 5408 5406 5406 5405 5403 5402 5401 5400 5398 5396 5396 5396 5399 5404 5405 5406 5405 5411 5415 5417 5418 5420 5422 5422 5422 5422
5386 5388 5391 5394 5398 5401 5403 5405 5407 5408 5409 5409 5408 5407 5406 5405 5403 5402 5400 5399 5397 5396 5395 5395 5398 5401 5404 5405 5406 5407 5413 5415 5418 5419 5419 5421 5421 5422
5385 5388 5391 5394 5397 5400 5403 5405 5407 5409 5409 5409 5409 5408 5407 5405 5404 5402 5400 5398 5397 5396 5395 5396 5396 5398 5400 5400 5402 5403 5407 5413 5415 5417 5417 5418 5419 5420
5385 5388 5391 5394 5397 5400 5403 5405 5407 5409 5410 5410 5410 5409 5408 5406 5405 5403 5401 5397 5397 5396 5396 5395 5394 5397 5400 5403 5404 5403 5403 5406 5411 5414 5417 5420 5421 5422
5385 5388 5392 5394 5397 5401 5403 5406 5408 5410 5411 5412 5411 5411 5409 5408 5406 5404 5402 5400 5398 5396 5395 5395 5396 5398 5401 5402 5401 5401 5402 5405 5408 5411 5414 5418 5421 5420
5386 5389 5392 5396 5399 5402 5404 5407 5409 5411 5412 5412 5413 5413 5412 5410 5408 5406 5403 5401 5399 5398 5397 5396 5396 5398 5398 5399 5400 5400 5401 5403 5406 5408 5407 5408 5411 5413